Time,TemperatureF,DewpointF,PressureIn,WindDirection,WindDirectionDegrees,WindSpeedMPH,WindSpeedGustMPH,Humidity,HourlyPrecipIn,Conditions,Clouds,dailyrainin,SolarRadiationWatts/m^2,SoftwareType,DateUTC
2017-05-29 00:02:00,70.0,47.1,30.10,East,96,25.3,25.3,44,0.00,FEW,,0.00,0.0,WeatherDisplay:10.37,2017-05-28 22:02:00,
2017-05-29 00:07:00,70.0,47.1,30.10,ENE,69,25.3,25.3,44,0.00,FEW,,0.00,0.0,WeatherDisplay:10.37,2017-05-28 22:07:00,
2017-05-29 00:12:00,69.8,46.9,30.10,ENE,72,25.3,25.3,44,0.00,FEW,,0.00,0.0,WeatherDisplay:10.37,2017-05-28 22:12:00,
2017-05-29 00:17:00,69.8,46.9,30.10,ENE,72,25.3,25.3,44,0.00,FEW,,0.00,0.0,WeatherDisplay:10.37,2017-05-28 22:17:00,
2017-05-29 00:22:00,69.6,47.3,30.10,ENE,73,25.3,25.3,45,0.00,FEW,,0.00,0.0,WeatherDisplay:10.37,2017-05-28 22:22:00,
2017-05-29 00:27:00,69.4,47.1,30.10,ENE,73,25.3,0.0,45,0.00,FEW,,0.00,0.0,WeatherDisplay:10.37,2017-05-28 22:27:00,
2017-05-29 00:32:00,69.3,47.0,30.10,ENE,74,25.3,25.3,45,0.00,FEW,,0.00,0.0,WeatherDisplay:10.37,2017-05-28 22:32:00,
2017-05-29 00:37:00,69.1,46.9,30.10,ENE,74,25.3,25.3,45,0.00,FEW,,0.00,0.0,WeatherDisplay:10.37,2017-05-28 22:37:00,
2017-05-29 00:42:00,68.8,47.2,30.10,ENE,70,25.3,25.3,46,0.00,FEW,,0.00,0.0,WeatherDisplay:10.37,2017-05-28 22:42:00,
2017-05-29 00:47:00,68.5,46.9,30.10,East,80,25.3,25.3,46,0.00,FEW,,0.00,0.0,WeatherDisplay:10.37,2017-05-28 22:47:00,
2017-05-29 00:52:00,68.3,46.7,30.10,ENE,67,25.3,25.3,46,0.00,FEW,,0.00,0.0,WeatherDisplay:10.37,2017-05-28 22:52:00,
2017-05-29 00:57:00,68.4,46.8,30.09,North,351,25.3,25.3,46,0.00,FEW,,0.00,0.0,WeatherDisplay:10.37,2017-05-28 22:57:00,
2017-05-29 01:02:00,68.7,47.1,30.09,NW,322,25.3,25.3,46,0.00,FEW,,0.00,0.0,WeatherDisplay:10.37,2017-05-28 23:02:00,
2017-05-29 01:07:00,69.0,47.4,30.09,East,86,25.3,25.3,46,0.00,FEW,,0.00,0.0,WeatherDisplay:10.37,2017-05-28 23:07:00,
2017-05-29 01:12:00,69.1,47.4,30.09,East,91,25.3,25.3,46,0.00,FEW,,0.00,0.0,WeatherDisplay:10.37,2017-05-28 23:12:00,
2017-05-29 01:17:00,69.0,47.4,30.08,ESE,112,25.3,25.3,46,0.00,FEW,,0.00,0.0,WeatherDisplay:10.37,2017-05-28 23:17:00,
2017-05-29 01:22:00,68.9,47.3,30.09,East,81,25.3,25.3,46,0.00,FEW,,0.00,0.0,WeatherDisplay:10.37,2017-05-28 23:22:00,
2017-05-29 01:27:00,68.8,47.2,30.08,ESE,115,25.3,25.3,46,0.00,FEW,,0.00,0.0,WeatherDisplay:10.37,2017-05-28 23:27:00,
2017-05-29 01:32:00,68.7,47.6,30.08,ENE,66,25.3,25.3,47,0.00,FEW,,0.00,0.0,WeatherDisplay:10.37,2017-05-28 23:32:00,
2017-05-29 01:37:00,68.4,47.4,30.08,ENE,78,25.3,25.3,47,0.00,FEW,,0.00,0.0,WeatherDisplay:10.37,2017-05-28 23:37:00,
2017-05-29 01:42:00,68.0,47.6,30.08,East,86,25.3,25.3,48,0.00,FEW,,0.00,0.0,WeatherDisplay:10.37,2017-05-28 23:42:00,
2017-05-29 01:47:00,68.0,47.6,30.08,ENE,71,25.3,25.3,48,0.00,FEW,,0.00,0.0,WeatherDisplay:10.37,2017-05-28 23:47:00,
2017-05-29 01:52:00,67.7,47.8,30.08,ENE,71,25.3,25.3,49,0.00,FEW,,0.00,0.0,WeatherDisplay:10.37,2017-05-28 23:52:00,
2017-05-29 01:57:00,67.6,47.8,30.08,ENE,63,25.3,25.3,49,0.00,FEW,,0.00,0.0,WeatherDisplay:10.37,2017-05-28 23:57:00,
2017-05-29 02:02:00,67.6,47.8,30.08,ENE,78,25.3,25.3,49,0.00,FEW,,0.00,0.0,WeatherDisplay:10.37,2017-05-29 00:02:00,
2017-05-29 02:07:00,67.6,47.2,30.08,East,99,25.3,25.3,48,0.00,FEW,,0.00,0.0,WeatherDisplay:10.37,2017-05-29 00:07:00,
2017-05-29 02:12:00,67.8,47.4,30.08,ENE,62,25.3,25.3,48,0.00,FEW,,0.00,0.0,WeatherDisplay:10.37,2017-05-29 00:12:00,
2017-05-29 02:17:00,67.9,47.5,30.08,East,81,25.3,25.3,48,0.00,FEW,,0.00,0.0,WeatherDisplay:10.37,2017-05-29 00:17:00,
2017-05-29 02:22:00,67.7,47.3,30.08,ENE,69,25.3,25.3,48,0.00,FEW,,0.00,0.0,WeatherDisplay:10.37,2017-05-29 00:22:00,
2017-05-29 02:27:00,67.6,47.2,30.08,East,86,25.3,25.3,48,0.00,FEW,,0.00,0.0,WeatherDisplay:10.37,2017-05-29 00:27:00,
2017-05-29 02:32:00,67.5,47.7,30.07,East,83,25.3,25.3,49,0.00,FEW,,0.00,0.0,WeatherDisplay:10.37,2017-05-29 00:32:00,
2017-05-29 02:37:00,67.5,47.7,30.08,ENE,62,25.3,25.3,49,0.00,FEW,,0.00,0.0,WeatherDisplay:10.37,2017-05-29 00:37:00,
2017-05-29 02:42:00,67.3,47.5,30.08,ENE,74,25.3,25.3,49,0.00,FEW,,0.00,0.0,WeatherDisplay:10.37,2017-05-29 00:42:00,
2017-05-29 02:47:00,67.3,47.5,30.07,ESE,106,25.3,25.3,49,0.00,FEW,,0.00,0.0,WeatherDisplay:10.37,2017-05-29 00:47:00,
2017-05-29 02:52:00,67.5,47.1,30.07,East,82,25.3,25.3,48,0.00,FEW,,0.00,0.0,WeatherDisplay:10.37,2017-05-29 00:52:00,
2017-05-29 02:57:00,67.7,47.3,30.07,SE,137,25.3,25.3,48,0.00,FEW,,0.00,0.0,WeatherDisplay:10.37,2017-05-29 00:57:00,
2017-05-29 03:02:00,67.7,47.3,30.07,ENE,68,25.3,25.3,48,0.00,FEW,,0.00,0.0,WeatherDisplay:10.37,2017-05-29 01:02:00,
2017-05-29 03:07:00,68.0,47.0,30.07,ENE,78,25.3,25.3,47,0.00,FEW,,0.00,0.0,WeatherDisplay:10.37,2017-05-29 01:07:00,
2017-05-29 03:12:00,68.0,47.0,30.07,East,80,25.3,25.3,47,0.00,FEW,,0.00,0.0,WeatherDisplay:10.37,2017-05-29 01:12:00,
2017-05-29 03:17:00,67.7,46.7,30.07,ENE,76,25.3,25.3,47,0.00,FEW,,0.00,0.0,WeatherDisplay:10.37,2017-05-29 01:17:00,
2017-05-29 03:22:00,67.5,47.1,30.06,NNW,333,25.3,25.3,48,0.00,FEW,,0.00,0.0,WeatherDisplay:10.37,2017-05-29 01:22:00,
2017-05-29 03:27:00,67.2,46.8,30.06,ENE,67,25.3,25.3,48,0.00,FEW,,0.00,0.0,WeatherDisplay:10.37,2017-05-29 01:27:00,
2017-05-29 03:32:00,67.2,46.8,30.06,ESE,110,25.3,25.3,48,0.00,FEW,,0.00,0.0,WeatherDisplay:10.37,2017-05-29 01:32:00,
2017-05-29 03:37:00,67.3,46.9,30.06,East,83,25.3,25.3,48,0.00,FEW,,0.00,0.0,WeatherDisplay:10.37,2017-05-29 01:37:00,
2017-05-29 03:42:00,67.4,47.0,30.06,ENE,75,25.3,25.3,48,0.00,FEW,,0.00,0.0,WeatherDisplay:10.37,2017-05-29 01:42:00,
2017-05-29 03:47:00,67.6,46.6,30.06,ENE,74,25.3,25.3,47,0.00,FEW,,0.00,0.0,WeatherDisplay:10.37,2017-05-29 01:47:00,
2017-05-29 03:52:00,67.8,46.8,30.06,NE,37,25.3,25.3,47,0.00,FEW,,0.00,0.0,WeatherDisplay:10.37,2017-05-29 01:52:00,
2017-05-29 03:57:00,67.8,46.8,30.06,SSW,213,25.3,25.3,47,0.00,FEW,,0.00,0.0,WeatherDisplay:10.37,2017-05-29 01:57:00,
2017-05-29 04:02:00,67.5,46.6,30.06,SE,132,25.3,25.3,47,0.00,FEW,,0.00,0.0,WeatherDisplay:10.37,2017-05-29 02:02:00,
2017-05-29 04:07:00,67.4,47.0,30.06,NNE,32,25.3,25.3,48,0.00,FEW,,0.00,0.0,WeatherDisplay:10.37,2017-05-29 02:07:00,
2017-05-29 04:12:00,67.5,46.6,30.06,SSE,158,25.3,25.3,47,0.00,FEW,,0.00,0.0,WeatherDisplay:10.37,2017-05-29 02:12:00,
2017-05-29 04:17:00,67.4,47.0,30.06,South,181,25.3,25.3,48,0.00,FEW,,0.00,0.0,WeatherDisplay:10.37,2017-05-29 02:17:00,
2017-05-29 04:22:00,67.4,47.0,30.06,SSW,200,25.3,25.3,48,0.00,FEW,,0.00,0.0,WeatherDisplay:10.37,2017-05-29 02:22:00,
2017-05-29 04:27:00,67.3,46.9,30.06,ESE,109,25.3,25.3,48,0.00,FEW,,0.00,0.0,WeatherDisplay:10.37,2017-05-29 02:27:00,
2017-05-29 04:32:00,67.2,46.8,30.06,ESE,110,25.3,25.3,48,0.00,FEW,,0.00,0.0,WeatherDisplay:10.37,2017-05-29 02:32:00,
2017-05-29 04:37:00,67.0,46.7,30.06,SE,132,25.3,25.3,48,0.00,FEW,,0.00,0.0,WeatherDisplay:10.37,2017-05-29 02:37:00,
2017-05-29 04:42:00,66.9,46.6,30.06,North,355,25.3,25.3,48,0.00,FEW,,0.00,0.0,WeatherDisplay:10.37,2017-05-29 02:42:00,
2017-05-29 04:47:00,66.7,46.9,30.06,East,84,25.3,25.3,49,0.00,FEW,,0.00,0.0,WeatherDisplay:10.37,2017-05-29 02:47:00,
2017-05-29 04:52:00,66.6,46.8,30.06,East,95,25.3,25.3,49,0.00,FEW,,0.00,0.0,WeatherDisplay:10.37,2017-05-29 02:52:00,
2017-05-29 04:57:00,66.3,46.6,30.06,SSE,147,25.3,25.3,49,0.00,FEW,,0.00,0.0,WeatherDisplay:10.37,2017-05-29 02:57:00,
2017-05-29 05:02:00,66.1,46.9,30.06,SSE,162,25.3,25.3,50,0.00,FEW,,0.00,0.0,WeatherDisplay:10.37,2017-05-29 03:02:00,
2017-05-29 05:07:00,66.0,46.8,30.06,ESE,113,25.3,25.3,50,0.00,FEW,,0.00,0.0,WeatherDisplay:10.37,2017-05-29 03:07:00,
2017-05-29 05:12:00,66.0,46.8,30.06,ENE,72,25.3,25.3,50,0.00,FEW,,0.00,0.0,WeatherDisplay:10.37,2017-05-29 03:12:00,
2017-05-29 05:17:00,65.9,46.7,30.07,ENE,76,25.3,0.0,50,0.00,FEW,,0.00,0.0,WeatherDisplay:10.37,2017-05-29 03:17:00,
2017-05-29 05:22:00,65.8,46.6,30.07,WNW,303,25.3,25.3,50,0.00,FEW,,0.00,0.0,WeatherDisplay:10.37,2017-05-29 03:22:00,
2017-05-29 05:27:00,65.9,46.7,30.07,WNW,303,25.3,25.3,50,0.00,FEW,,0.00,0.0,WeatherDisplay:10.37,2017-05-29 03:27:00,
2017-05-29 05:32:00,66.0,46.8,30.07,East,90,25.3,25.3,50,0.00,FEW,,0.00,0.0,WeatherDisplay:10.37,2017-05-29 03:32:00,
2017-05-29 05:37:00,66.3,47.1,30.07,East,84,25.3,25.3,50,0.00,FEW,,0.00,5.0,WeatherDisplay:10.37,2017-05-29 03:37:00,
2017-05-29 05:42:00,66.3,47.1,30.07,ENE,73,25.3,25.3,50,0.00,FEW,,0.00,7.0,WeatherDisplay:10.37,2017-05-29 03:42:00,
2017-05-29 05:47:00,66.1,46.9,30.06,NNE,33,25.3,25.3,50,0.00,FEW,,0.00,9.0,WeatherDisplay:10.37,2017-05-29 03:47:00,
2017-05-29 05:52:00,66.0,46.8,30.06,South,189,25.3,25.3,50,0.00,FEW,,0.00,12.0,WeatherDisplay:10.37,2017-05-29 03:52:00,
2017-05-29 05:57:00,65.6,47.0,30.07,West,263,25.3,25.3,51,0.00,FEW,,0.00,30.0,WeatherDisplay:10.37,2017-05-29 03:57:00,
2017-05-29 06:02:00,65.5,46.9,30.07,East,79,25.3,25.3,51,0.00,CLR,,0.00,40.0,WeatherDisplay:10.37,2017-05-29 04:02:00,
2017-05-29 06:07:00,65.4,46.8,30.07,ENE,74,25.3,25.3,51,0.00,CLR,,0.00,53.0,WeatherDisplay:10.37,2017-05-29 04:07:00,
2017-05-29 06:12:00,65.6,47.0,30.07,East,81,25.3,25.3,51,0.00,CLR,,0.00,65.0,WeatherDisplay:10.37,2017-05-29 04:12:00,
2017-05-29 06:17:00,65.9,47.3,30.07,East,83,25.3,25.3,51,0.00,CLR,,0.00,79.0,WeatherDisplay:10.37,2017-05-29 04:17:00,
2017-05-29 06:22:00,66.1,47.4,30.07,ENE,74,25.3,25.3,51,0.00,CLR,,0.00,91.0,WeatherDisplay:10.37,2017-05-29 04:22:00,
2017-05-29 06:27:00,66.3,47.1,30.07,East,93,25.3,25.3,50,0.00,CLR,,0.00,104.0,WeatherDisplay:10.37,2017-05-29 04:27:00,
2017-05-29 06:32:00,66.3,47.1,30.07,ENE,77,25.3,25.3,50,0.00,CLR,,0.00,121.0,WeatherDisplay:10.37,2017-05-29 04:32:00,
2017-05-29 06:33:00,66.3,47.1,30.07,East,84,25.3,25.3,50,0.00,CLR,,0.00,127.0,WeatherDisplay:10.37,2017-05-29 04:33:00,
2017-05-29 06:38:00,66.3,47.6,30.07,ENE,62,25.3,25.3,51,0.00,CLR,,0.00,141.0,WeatherDisplay:10.37,2017-05-29 04:38:00,
2017-05-29 06:43:00,66.3,47.6,30.07,SSW,209,25.3,25.3,51,0.00,CLR,,0.00,156.0,WeatherDisplay:10.37,2017-05-29 04:43:00,
2017-05-29 06:48:00,66.5,47.8,30.07,NE,44,25.3,25.3,51,0.00,CLR,,0.00,181.0,WeatherDisplay:10.37,2017-05-29 04:48:00,
2017-05-29 06:53:00,66.7,48.0,30.07,ESE,110,25.3,25.3,51,0.00,CLR,,0.00,195.0,WeatherDisplay:10.37,2017-05-29 04:53:00,
2017-05-29 06:54:00,66.8,48.1,30.07,East,90,25.3,25.3,51,0.00,CLR,,0.00,200.0,WeatherDisplay:10.37,2017-05-29 04:54:00,
2017-05-29 06:59:00,67.1,47.8,30.07,SE,126,25.3,25.3,50,0.00,CLR,,0.00,216.0,WeatherDisplay:10.37,2017-05-29 04:59:00,
2017-05-29 07:04:00,67.4,48.1,30.07,NE,53,25.3,25.3,50,0.00,CLR,,0.00,223.0,WeatherDisplay:10.37,2017-05-29 05:04:00,
2017-05-29 07:09:00,67.6,47.8,30.07,East,95,25.3,25.3,49,0.00,CLR,,0.00,246.0,WeatherDisplay:10.37,2017-05-29 05:09:00,
2017-05-29 07:14:00,67.9,48.0,30.07,East,86,25.3,25.3,49,0.00,CLR,,0.00,248.0,WeatherDisplay:10.37,2017-05-29 05:14:00,
2017-05-29 07:15:00,67.9,48.0,30.07,NE,44,25.3,25.3,49,0.00,CLR,,0.00,248.0,WeatherDisplay:10.37,2017-05-29 05:15:00,
2017-05-29 07:20:00,68.2,48.3,30.07,East,80,25.3,25.3,49,0.00,CLR,,0.00,274.0,WeatherDisplay:10.37,2017-05-29 05:20:00,
2017-05-29 07:25:00,68.3,47.8,30.07,East,88,25.3,25.3,48,0.00,CLR,,0.00,292.0,WeatherDisplay:10.37,2017-05-29 05:25:00,
2017-05-29 07:30:00,68.4,47.9,30.07,SSE,162,25.3,25.3,48,0.00,CLR,,0.00,308.0,WeatherDisplay:10.37,2017-05-29 05:30:00,
2017-05-29 07:35:00,68.8,48.3,30.07,SE,130,25.3,25.3,48,0.00,CLR,,0.00,322.0,WeatherDisplay:10.37,2017-05-29 05:35:00,
2017-05-29 07:40:00,69.2,48.1,30.07,East,101,25.3,25.3,47,0.00,CLR,,0.00,323.0,WeatherDisplay:10.37,2017-05-29 05:40:00,
2017-05-29 07:45:00,69.7,48.6,30.07,East,100,25.3,25.3,47,0.00,CLR,,0.00,348.0,WeatherDisplay:10.37,2017-05-29 05:45:00,
2017-05-29 07:50:00,70.4,48.6,30.07,East,97,25.3,0.0,46,0.00,CLR,,0.00,360.0,WeatherDisplay:10.37,2017-05-29 05:50:00,
2017-05-29 07:55:00,70.7,48.3,30.07,East,80,25.3,25.3,45,0.00,CLR,,0.00,376.0,WeatherDisplay:10.37,2017-05-29 05:55:00,
2017-05-29 08:00:00,71.0,48.6,30.07,ENE,65,25.3,25.3,45,0.00,CLR,,0.00,390.0,WeatherDisplay:10.37,2017-05-29 06:00:00,
2017-05-29 08:05:00,71.2,48.8,30.07,ESE,103,25.3,25.3,45,0.00,CLR,,0.00,410.0,WeatherDisplay:10.37,2017-05-29 06:05:00,
2017-05-29 08:10:00,71.3,48.3,30.07,East,88,25.3,25.3,44,0.00,CLR,,0.00,424.0,WeatherDisplay:10.37,2017-05-29 06:10:00,